Location: Antichan
(42.9943°N, 0.5825°E)
Time: 12:24:33
(UTC+00:00)

Daily predictions for brighter satellites

Satellite Brightness Start Highest point End
(mag) Time Altitude Azimuth Time Altitude Azimuth Time Altitude Azimuth
USA 229 DEB 4.1 17:26:15 10° NNW 17:33:20 51° NE 17:40:47 10° ESE
USA 229 4.1 17:26:21 10° NNW 17:33:27 51° NE 17:40:54 10° ESE
CZ-3B R/B 2.8 17:32:03 10° NNW 17:34:30 30° NE 17:40:20 10° ESE
SJ 16-02 2.4 17:31:02 10° SW 17:35:17 47° WNW 17:39:32 10° N
SeaSat 1 4.1 17:31:49 10° N 17:36:10 32° NW 17:40:31 10° WSW
FengYun 1-2 T 4.3 17:32:10 10° SSE 17:37:44 84° ENE 17:43:24 10° NNW
Cosmos 158 Rocket 4.4 17:32:47 10° NNW 17:38:11 75° WSW 17:43:33 10° SSE
Cosmos 2112 Rocket 4.0 17:33:23 10° NNW 17:38:36 65° ENE 17:43:44 10° SSE
Cosmos 990 Rocket 4.0 17:33:29 10° SSW 17:38:41 81° ESE 17:43:53 10° NNE
YAOGAN 1 3.9 17:36:07 10° ESE 17:39:11 19° ENE 17:42:15 10° NNE
Cosmos 1844 Rocket 3.8 17:35:01 10° SW 17:40:25 45° WNW 17:45:51 10° NNE
H-2A R/B 3.3 17:36:54 10° S 17:40:58 58° W 17:45:13 10° NNW
Cosmos 1689 Rocket 4.1 17:41:48 10° ENE 17:42:48 11° E 17:43:48 10° ESE
Aureole 3 Rocket 3.6 17:40:55 10° NNE 17:43:52 27° E 17:47:25 10° SE
COSMOS 2406 3.6 17:39:37 10° NNW 17:45:06 42° ENE 17:50:31 10° SE
Cosmos 2082 Rocket 3.4 17:40:47 10° N 17:45:12 22° NE 17:49:35 10° E
Cosmos 1703 3.2 17:42:31 10° S 17:46:21 68° E 17:50:13 10° NNE
IRS-1C Rocket 4.5 17:43:40 10° SE 17:48:33 41° ENE 17:53:27 10° N
X-37B 0.7 17:45:27 10° WNW 17:48:38 64° N 17:51:36 11° E
NOSS 3-1 (A) 4.2 17:41:42 10° NNW 17:49:04 56° NE 17:57:35 10° SE
ISS -1.8 17:48:45 10° NW 17:51:16 19° N 17:53:47 10° NE
Cosmos 1812 Rocket 3.6 17:48:50 10° N 17:53:08 55° E 17:57:23 10° SSE
Okean O Rocket 2.2 17:49:58 10° S 17:54:20 63° WSW 17:58:43 10° NNW
CZ-4 R/B 2.1 17:55:06 10° SE 17:58:41 31° ENE 18:02:13 10° N
Iridium 4 Rocket 3.7 17:56:24 10° N 18:01:33 48° E 18:06:14 10° SSE
ERS-2 2.7 17:59:54 10° NNE 18:03:16 34° E 18:06:37 10° SSE
SKYMED 2 3.5 17:58:59 10° NNE 18:03:20 71° ESE 18:07:39 10° S
Okean-O 3.1 18:02:07 10° SE 18:06:10 36° ENE 18:10:14 10° N
Cosmos 1428 Rocket 4.5 18:02:54 10° S 18:09:07 69° E 18:15:24 10° NNE
Cosmos 1340 2.8 18:06:09 10° SSW 18:09:53 74° W 18:13:39 10° N
Cosmos 1346 Rocket 3.2 18:06:45 10° SSE 18:10:25 40° E 18:14:08 10° NNE
Cosmos 2278 Rocket 2.2 18:04:59 10° S 18:10:33 62° ESE 18:16:10 10° NNE
Cosmos 1953 Rocket 4.3 18:10:11 10° SSE 18:13:57 29° E 18:17:43 10° NNE
CZ-2C R/B 3.2 18:09:08 10° SSE 18:14:34 78° ENE 18:20:19 10° N
Cosmos 2292 Rocket 4.4 18:14:23 10° SSE 18:18:39 29° E 18:20:41 19° NE
Cosmos 44 Rocket 4.0 18:16:22 10° S 18:20:46 35° ESE 18:23:19 21° ENE
SAR-Lupe-4 3.8 18:17:50 10° NNE 18:21:14 46° E 18:24:40 10° S
Cosmos 405 2.9 18:19:47 10° N 18:23:19 88° W 18:26:49 10° S
ARGOS 3.4 18:23:12 10° SE 18:28:14 43° ENE 18:33:18 10° N
Meteor 2-19 Rocket 4.4 18:23:50 10° S 18:29:59 78° E 18:36:09 10° N
Cosmos 372 Rocket 3.9 18:29:03 10° SSW 18:34:15 80° ESE 18:39:31 10° NNE
PSLV R/B 3.9 18:30:24 10° NNE 18:34:38 77° ESE 18:38:49 10° S
SAR-Lupe-1 3.9 18:34:05 13° NNE 18:37:18 76° ESE 18:40:53 10° S
CZ-4B R/B 3.2 18:35:11 10° N 18:38:08 30° WNW 18:40:59 10° SW
CZ-2D R/B 4.4 18:35:27 10° S 18:39:08 45° W 18:42:50 10° NNW
CZ-2C R/B 3.2 18:34:32 10° NNE 18:39:44 38° E 18:44:55 10° SSE
Cosmos 2150 Rocket 4.2 18:38:36 10° S 18:43:31 48° ESE 18:45:58 27° NE
MOS 1 Rocket 4.0 18:41:56 10° N 18:46:05 49° WNW 18:50:17 10° SSW
Cosmos 1048 Rocket 4.2 18:42:40 10° N 18:47:37 46° ENE 18:49:37 31° ESE
Cosmos-2242 3.2 18:43:44 10° NNW 18:48:02 71° W 18:52:20 10° S
Cosmos 2297 4.3 18:46:14 10° SSE 18:51:16 34° ESE 18:51:23 34° ESE
COSMO-SKYMED 1 4.2 18:47:20 10° N 18:51:17 35° WNW 18:55:13 10° SW
USA 290 3.5 18:53:17 10° NW 18:56:19 40° WSW 18:59:18 10° S
SL-08 RB Rocket 3.6 18:59:18 51° ESE 18:59:53 56° ENE 19:04:17 10° N
USA 276 3.9 18:57:16 10° SSW 18:58:53 23° S 18:58:53 23° S
CSL-04 Debris 4.0 18:56:38 10° SSE 19:02:00 83° ENE 19:07:25 10° NNW
Helios 1A Rocket 3.1 19:00:48 10° S 19:04:55 71° WSW 19:09:04 10° NNW
H-2A R/B 2.5 19:01:39 10° S 19:06:38 62° W 19:11:48 10° NNW
Cosmos 1125 Rocket 3.5 19:03:03 10° S 19:08:09 59° ESE 19:08:41 55° ENE
Cosmos 1809 Rocket 4.3 19:02:35 10° S 19:08:40 71° E 19:14:47 10° NNE
Cosmos 1833 Rocket 3.5 19:04:17 10° NW 19:09:41 50° WSW 19:15:05 10° S
Cosmos 2298 Rocket 3.9 19:05:28 10° SSW 19:10:47 89° WNW 19:13:35 29° NNE
Cosmos 2266 Rocket 3.8 19:06:39 10° S 19:12:50 69° E 19:18:57 10° NNE
Cosmos 1689 Rocket 4.1 19:13:24 24° NW 19:13:52 25° WNW 19:16:16 10° SW
YAOGAN 1 3.8 19:10:52 10° S 19:14:58 42° W 19:19:05 10° NNW
In-Cosmos 22 Rocket 4.2 19:16:46 10° S 19:22:34 84° W 19:28:17 10° N
X-37B 2.8 19:22:11 10° W 19:23:55 26° W 19:23:55 26° W
Cosmos 1943 Rocket 3.8 19:21:28 10° S 19:23:18 20° SSE 19:23:18 20° SSE
ISS -1.0 19:26:03 10° NW 19:26:49 14° NNW 19:26:49 14° NNW
Cosmos 2082 Rocket 2.5 19:24:07 10° NNW 19:29:47 65° WSW 19:33:42 20° S
CZ-4 R/B 4.0 19:30:41 10° SW 19:33:44 20° W 19:36:45 10° NW
Meteor 2-21 4.4 19:32:22 10° S 19:38:27 80° W 19:44:37 10° N
NOSS 2-2 (E) 4.5 19:37:39 10° NNW 19:43:25 76° NE 19:43:31 76° ENE
Cosmos 2315 Rocket 4.0 19:41:10 10° N 19:46:33 68° N 19:46:33 68° N
Cosmos 883 Rocket 4.4 19:42:01 10° N 19:48:13 79° W 19:50:11 46° S
USA 234 4.3 19:53:13 32° N 19:53:13 32° N 19:58:28 10° NW
Cosmos 2278 Rocket 4.3 19:50:39 10° WSW 19:55:04 23° NW 19:59:05 12° N
CZ-4C R/B 4.4 19:53:45 10° NNW 19:56:58 18° N 19:56:58 18° N
CZ-2C R/B 4.3 20:15:10 11° N 20:19:53 32° WNW 20:24:48 10° SW
ATLAS 5 CENTAUR R/B 4.2 20:18:07 10° SSW 20:39:15 68° SSW 20:39:15 68° SSW
